TimePDT,TemperatureF,Dew PointF,Humidity,Sea Level PressureIn,VisibilityMPH,Wind Direction,Wind SpeedMPH,Gust SpeedMPH,PrecipitationIn,Events,Conditions,WindDirDegrees,DateUTC
12:53 AM,91.0,54.0,28,29.73,10.0,Calm,Calm,-,N/A,,Mostly Cloudy,0,2013-07-28 07:53:00
1:53 AM,88.0,55.9,34,29.72,10.0,Calm,Calm,-,N/A,,Clear,0,2013-07-28 08:53:00
2:53 AM,87.1,55.9,35,29.71,10.0,Calm,Calm,-,N/A,,Clear,0,2013-07-28 09:53:00
3:53 AM,84.9,54.0,34,29.71,10.0,Calm,Calm,-,N/A,,Clear,0,2013-07-28 10:53:00
4:53 AM,84.9,53.1,33,29.71,10.0,SE,3.5,-,N/A,,Clear,140,2013-07-28 11:53:00
5:53 AM,84.0,53.1,34,29.73,10.0,Calm,Calm,-,N/A,,Clear,0,2013-07-28 12:53:00
6:53 AM,84.9,53.1,33,29.74,10.0,SE,3.5,-,N/A,,Clear,140,2013-07-28 13:53:00
7:53 AM,87.1,55.0,33,29.75,10.0,Calm,Calm,-,N/A,,Clear,0,2013-07-28 14:53:00
8:53 AM,95.0,48.9,21,29.75,10.0,NW,8.1,-,N/A,,Clear,320,2013-07-28 15:53:00
9:53 AM,98.1,51.1,20,29.75,10.0,NW,6.9,-,N/A,,Clear,310,2013-07-28 16:53:00
10:53 AM,100.9,45.0,15,29.74,10.0,NW,11.5,-,N/A,,Partly Cloudy,320,2013-07-28 17:53:00
11:53 AM,104.0,39.9,11,29.73,10.0,NW,15.0,-,N/A,,Clear,320,2013-07-28 18:53:00
12:53 PM,105.1,37.0,10,29.71,10.0,WNW,16.1,-,N/A,,Partly Cloudy,300,2013-07-28 19:53:00
1:53 PM,106.0,37.0,9,29.70,10.0,NW,17.3,24.2,N/A,,Clear,320,2013-07-28 20:53:00
2:53 PM,107.1,37.0,9,29.68,10.0,NW,19.6,27.6,N/A,,Partly Cloudy,320,2013-07-28 21:53:00
3:53 PM,106.0,35.1,9,29.66,10.0,NW,21.9,28.8,N/A,,Partly Cloudy,320,2013-07-28 22:53:00
4:53 PM,105.1,33.1,8,29.66,10.0,NW,18.4,27.6,N/A,,Clear,320,2013-07-28 23:53:00
5:53 PM,102.0,34.0,9,29.66,10.0,NW,16.1,21.9,N/A,,Clear,310,2013-07-29 00:53:00
6:53 PM,98.1,37.0,12,29.67,10.0,NW,15.0,33.4,N/A,,Clear,320,2013-07-29 01:53:00
7:53 PM,95.0,34.0,12,29.68,10.0,NW,20.7,26.5,N/A,,Clear,320,2013-07-29 02:53:00
8:53 PM,93.0,34.0,12,29.69,10.0,NW,11.5,20.7,N/A,,Clear,320,2013-07-29 03:53:00
9:53 PM,90.0,33.1,13,29.72,10.0,NW,18.4,-,N/A,,Clear,320,2013-07-29 04:53:00
10:53 PM,89.1,32.0,13,29.73,10.0,WNW,4.6,-,N/A,,Clear,300,2013-07-29 05:53:00
11:53 PM,88.0,34.0,15,29.74,10.0,NW,4.6,-,N/A,,Clear,310,2013-07-29 06:53:00